Year,Month,Day,Hour,Minute,Value (Times are PST for temperature in C)
2012,08,13,00,00,13.80
2012,08,13,00,01,13.80
2012,08,13,00,02,13.70
2012,08,13,00,03,13.70
2012,08,13,00,04,13.70
2012,08,13,00,05,13.70
2012,08,13,00,06,13.60
2012,08,13,00,07,13.60
2012,08,13,00,08,13.60
2012,08,13,00,09,13.60
2012,08,13,00,10,13.60
2012,08,13,00,11,13.50
2012,08,13,00,12,13.50
2012,08,13,00,13,13.50
2012,08,13,00,14,13.50
2012,08,13,00,15,13.40
2012,08,13,00,16,13.40
2012,08,13,00,17,13.40
2012,08,13,00,18,13.40
2012,08,13,00,19,13.40
2012,08,13,00,20,13.40
2012,08,13,00,21,13.30
2012,08,13,00,22,13.30
2012,08,13,00,23,13.30
2012,08,13,00,24,13.30
2012,08,13,00,25,13.30
2012,08,13,00,26,13.20
2012,08,13,00,27,13.20
2012,08,13,00,28,13.20
2012,08,13,00,29,13.20
2012,08,13,00,30,13.20
2012,08,13,00,31,13.10
2012,08,13,00,32,13.10
2012,08,13,00,33,13.10
2012,08,13,00,34,13.10
2012,08,13,00,35,13.10
2012,08,13,00,36,13.10
2012,08,13,00,37,13.00
2012,08,13,00,38,13.00
2012,08,13,00,39,13.00
2012,08,13,00,40,13.00
2012,08,13,00,41,12.90
2012,08,13,00,42,12.90
2012,08,13,00,43,12.90
2012,08,13,00,44,12.90
2012,08,13,00,45,12.80
2012,08,13,00,46,12.80
2012,08,13,00,47,12.80
2012,08,13,00,48,12.80
2012,08,13,00,49,12.80
2012,08,13,00,50,12.80
2012,08,13,00,51,12.70
2012,08,13,00,52,12.70
2012,08,13,00,53,12.70
2012,08,13,00,54,12.70
2012,08,13,00,55,12.60
2012,08,13,00,56,12.60
2012,08,13,00,57,12.60
2012,08,13,00,58,12.60
2012,08,13,00,59,12.50
2012,08,13,01,00,12.50
2012,08,13,01,01,12.50
2012,08,13,01,02,12.50
2012,08,13,01,03,12.40
2012,08,13,01,04,12.40
2012,08,13,01,05,12.40
2012,08,13,01,06,12.40
2012,08,13,01,07,12.40
2012,08,13,01,08,12.40
2012,08,13,01,09,12.40
2012,08,13,01,10,12.30
2012,08,13,01,11,12.30
2012,08,13,01,12,12.30
2012,08,13,01,13,12.30
2012,08,13,01,14,12.30
2012,08,13,01,15,12.40
2012,08,13,01,16,12.40
2012,08,13,01,17,12.40
2012,08,13,01,18,12.30
2012,08,13,01,19,12.30
2012,08,13,01,20,12.30
2012,08,13,01,21,12.30
2012,08,13,01,22,12.30
2012,08,13,01,23,12.30
2012,08,13,01,24,12.30
2012,08,13,01,25,12.30
2012,08,13,01,26,12.20
2012,08,13,01,27,12.20
2012,08,13,01,28,12.20
2012,08,13,01,29,12.20
2012,08,13,01,30,12.20
2012,08,13,01,31,12.10
2012,08,13,01,32,12.10
2012,08,13,01,33,12.10
2012,08,13,01,34,12.10
2012,08,13,01,35,12.10
2012,08,13,01,36,12.00
2012,08,13,01,37,12.00
2012,08,13,01,38,12.00
2012,08,13,01,39,12.00
2012,08,13,01,40,11.90
2012,08,13,01,41,11.90
2012,08,13,01,42,11.90
2012,08,13,01,43,11.90
2012,08,13,01,44,11.90
2012,08,13,01,45,11.80
2012,08,13,01,46,11.80
2012,08,13,01,47,11.80
2012,08,13,01,48,11.80
2012,08,13,01,49,11.70
2012,08,13,01,50,11.70
2012,08,13,01,51,11.70
2012,08,13,01,52,11.60
2012,08,13,01,53,11.50
2012,08,13,01,54,11.50
2012,08,13,01,55,11.40
2012,08,13,01,56,11.40
2012,08,13,01,57,11.40
2012,08,13,01,58,11.40
2012,08,13,01,59,11.40
2012,08,13,02,00,11.40
2012,08,13,02,01,11.30
2012,08,13,02,02,11.30
2012,08,13,02,03,11.30
2012,08,13,02,04,11.30
2012,08,13,02,05,11.30
2012,08,13,02,06,11.30
2012,08,13,02,07,11.30
2012,08,13,02,08,11.30
2012,08,13,02,09,11.30
2012,08,13,02,10,11.30
2012,08,13,02,11,11.20
2012,08,13,02,12,11.20
2012,08,13,02,13,11.20
2012,08,13,02,14,11.20
2012,08,13,02,15,11.10
2012,08,13,02,16,11.10
2012,08,13,02,17,11.10
2012,08,13,02,18,11.10
2012,08,13,02,19,11.00
2012,08,13,02,20,11.00
2012,08,13,02,21,11.00
2012,08,13,02,22,10.90
2012,08,13,02,23,10.90
2012,08,13,02,24,10.90
2012,08,13,02,25,10.80
2012,08,13,02,26,10.80
2012,08,13,02,27,10.80
2012,08,13,02,28,10.80
2012,08,13,02,29,10.70
2012,08,13,02,30,10.70
2012,08,13,02,31,10.70
2012,08,13,02,32,10.60
2012,08,13,02,33,10.60
2012,08,13,02,34,10.60
2012,08,13,02,35,10.50
2012,08,13,02,36,10.50
2012,08,13,02,37,10.50
2012,08,13,02,38,10.40
2012,08,13,02,39,10.40
2012,08,13,02,40,10.40
2012,08,13,02,41,10.50
2012,08,13,02,42,10.50
2012,08,13,02,43,10.50
2012,08,13,02,44,10.50
2012,08,13,02,45,10.50
2012,08,13,02,46,10.50
2012,08,13,02,47,10.40
2012,08,13,02,48,10.40
2012,08,13,02,49,10.30
2012,08,13,02,50,10.30
2012,08,13,02,51,10.30
2012,08,13,02,52,10.30
2012,08,13,02,53,10.20
2012,08,13,02,54,10.20
2012,08,13,02,55,10.20
2012,08,13,02,56,10.20
2012,08,13,02,57,10.20
2012,08,13,02,58,10.20
2012,08,13,02,59,10.20
2012,08,13,03,00,10.10
2012,08,13,03,01,10.10
2012,08,13,03,02,10.10
2012,08,13,03,03,10.10
2012,08,13,03,04,10.00
2012,08,13,03,05,10.00
2012,08,13,03,06,9.90
2012,08,13,03,07,9.90
2012,08,13,03,08,9.90
2012,08,13,03,09,9.80
2012,08,13,03,10,9.80
2012,08,13,03,11,9.80
2012,08,13,03,12,9.80
2012,08,13,03,13,9.80
2012,08,13,03,14,9.80
2012,08,13,03,15,9.80
2012,08,13,03,16,9.90
2012,08,13,03,17,9.90
2012,08,13,03,18,9.90
2012,08,13,03,19,9.90
2012,08,13,03,20,9.90
2012,08,13,03,21,10.00
2012,08,13,03,22,10.00
2012,08,13,03,23,9.90
2012,08,13,03,24,9.90
2012,08,13,03,25,9.90
2012,08,13,03,26,9.90
2012,08,13,03,27,9.90
2012,08,13,03,28,9.90
2012,08,13,03,29,9.80
2012,08,13,03,30,9.80
2012,08,13,03,31,9.80
2012,08,13,03,32,9.80
2012,08,13,03,33,9.80
2012,08,13,03,34,9.80
2012,08,13,03,35,9.80
2012,08,13,03,36,9.80
2012,08,13,03,37,9.80
2012,08,13,03,38,9.80
2012,08,13,03,39,9.80
2012,08,13,03,40,9.80
2012,08,13,03,41,9.80
2012,08,13,03,42,9.80
2012,08,13,03,43,9.80
2012,08,13,03,44,9.80
2012,08,13,03,45,9.70
2012,08,13,03,46,9.70
2012,08,13,03,47,9.70
2012,08,13,03,48,9.70
2012,08,13,03,49,9.70
2012,08,13,03,50,9.70
2012,08,13,03,51,9.70
2012,08,13,03,52,9.70
2012,08,13,03,53,9.70
2012,08,13,03,54,9.60
2012,08,13,03,55,9.60
2012,08,13,03,56,9.60
2012,08,13,03,57,9.60
2012,08,13,03,58,9.50
2012,08,13,03,59,9.50
2012,08,13,04,00,9.50
2012,08,13,04,01,9.40
2012,08,13,04,02,9.40
2012,08,13,04,03,9.40
2012,08,13,04,04,9.30
2012,08,13,04,05,9.30
2012,08,13,04,06,9.30
2012,08,13,04,07,9.30
2012,08,13,04,08,9.30
2012,08,13,04,09,9.20
2012,08,13,04,10,9.20
2012,08,13,04,11,9.20
2012,08,13,04,12,9.20
2012,08,13,04,13,9.20
2012,08,13,04,14,9.20
2012,08,13,04,15,9.10
2012,08,13,04,16,9.10
2012,08,13,04,17,9.10
2012,08,13,04,18,9.10
2012,08,13,04,19,9.00
2012,08,13,04,20,9.00
2012,08,13,04,21,8.90
2012,08,13,04,22,8.90
2012,08,13,04,23,8.90
2012,08,13,04,24,8.80
2012,08,13,04,25,8.80
2012,08,13,04,26,8.80
2012,08,13,04,27,8.80
2012,08,13,04,28,8.70
2012,08,13,04,29,8.70
2012,08,13,04,30,8.70
2012,08,13,04,31,8.70
2012,08,13,04,32,8.70
2012,08,13,04,33,8.70
2012,08,13,04,34,8.70
2012,08,13,04,35,8.70
2012,08,13,04,36,8.70
2012,08,13,04,37,8.70
2012,08,13,04,38,8.70
2012,08,13,04,39,8.70
2012,08,13,04,40,8.70
2012,08,13,04,41,8.70
2012,08,13,04,42,8.70
2012,08,13,04,43,8.70
2012,08,13,04,44,8.70
2012,08,13,04,45,8.70
2012,08,13,04,46,8.70
2012,08,13,04,47,8.70
2012,08,13,04,48,8.70
2012,08,13,04,49,8.70
2012,08,13,04,50,8.70
2012,08,13,04,51,8.70
2012,08,13,04,52,8.70
2012,08,13,04,53,8.70
2012,08,13,04,54,8.70
2012,08,13,04,55,8.70
2012,08,13,04,56,8.70
2012,08,13,04,57,8.60
2012,08,13,04,58,8.60
2012,08,13,04,59,8.60
2012,08,13,05,00,8.60
2012,08,13,05,01,8.60
2012,08,13,05,02,8.60
2012,08,13,05,03,8.60
2012,08,13,05,04,8.60
2012,08,13,05,05,8.60
2012,08,13,05,06,8.50
2012,08,13,05,07,8.50
2012,08,13,05,08,8.50
2012,08,13,05,09,8.50
2012,08,13,05,10,8.40
2012,08,13,05,11,8.40
2012,08,13,05,12,8.40
2012,08,13,05,13,8.40
2012,08,13,05,14,8.40
2012,08,13,05,15,8.40
2012,08,13,05,16,8.40
2012,08,13,05,17,8.40
2012,08,13,05,18,8.40
2012,08,13,05,19,8.30
2012,08,13,05,20,8.30
2012,08,13,05,21,8.30
2012,08,13,05,22,8.30
2012,08,13,05,23,8.30
2012,08,13,05,24,8.30
2012,08,13,05,25,8.30
2012,08,13,05,26,8.30
2012,08,13,05,27,8.30
2012,08,13,05,28,8.30
2012,08,13,05,29,8.20
2012,08,13,05,30,8.20
2012,08,13,05,31,8.20
2012,08,13,05,32,8.20
2012,08,13,05,33,8.20
2012,08,13,05,34,8.20
2012,08,13,05,35,8.10
2012,08,13,05,36,8.10
2012,08,13,05,37,8.10
2012,08,13,05,38,8.10
2012,08,13,05,39,8.10
2012,08,13,05,40,8.10
2012,08,13,05,41,8.10
2012,08,13,05,42,8.10
2012,08,13,05,43,8.10
2012,08,13,05,44,8.10
2012,08,13,05,45,8.10
2012,08,13,05,46,8.10
2012,08,13,05,47,8.10
2012,08,13,05,48,8.00
2012,08,13,05,49,8.00
2012,08,13,05,50,8.00
2012,08,13,05,51,8.00
2012,08,13,05,52,8.00
2012,08,13,05,53,8.00
2012,08,13,05,54,8.00
2012,08,13,05,55,8.00
2012,08,13,05,56,8.00
2012,08,13,05,57,8.00
2012,08,13,05,58,8.00
2012,08,13,05,59,7.90
2012,08,13,06,00,7.90
2012,08,13,06,01,7.90
2012,08,13,06,02,7.90
2012,08,13,06,03,7.90
2012,08,13,06,04,7.90
2012,08,13,06,05,7.90
2012,08,13,06,06,7.80
2012,08,13,06,07,7.80
2012,08,13,06,08,7.80
2012,08,13,06,09,7.80
2012,08,13,06,10,7.80
2012,08,13,06,11,7.80
2012,08,13,06,12,7.80
2012,08,13,06,13,7.70
2012,08,13,06,14,7.70
2012,08,13,06,15,7.70
2012,08,13,06,16,7.70
2012,08,13,06,17,7.70
2012,08,13,06,18,7.60
2012,08,13,06,19,7.60
2012,08,13,06,20,7.60
2012,08,13,06,21,7.60
2012,08,13,06,22,7.50
2012,08,13,06,23,7.50
2012,08,13,06,24,7.50
2012,08,13,06,25,7.40
2012,08,13,06,26,7.40
2012,08,13,06,27,7.40
2012,08,13,06,28,7.40
2012,08,13,06,29,7.40
2012,08,13,06,30,7.40
2012,08,13,06,31,7.30
2012,08,13,06,32,7.30
2012,08,13,06,33,7.30
2012,08,13,06,34,7.30
2012,08,13,06,35,7.30
2012,08,13,06,36,7.40
2012,08,13,06,37,7.30
2012,08,13,06,38,7.30
2012,08,13,06,39,7.30
2012,08,13,06,40,7.30
2012,08,13,06,41,7.30
2012,08,13,06,42,7.30
2012,08,13,06,43,7.30
2012,08,13,06,44,7.20
2012,08,13,06,45,7.20
2012,08,13,06,46,7.20
2012,08,13,06,47,7.20
2012,08,13,06,48,7.20
2012,08,13,06,49,7.20
2012,08,13,06,50,7.10
2012,08,13,06,51,7.10
2012,08,13,06,52,7.10
2012,08,13,06,53,7.10
2012,08,13,06,54,7.10
2012,08,13,06,55,7.10
2012,08,13,06,56,7.00
2012,08,13,06,57,7.00
2012,08,13,06,58,7.00
2012,08,13,06,59,7.00
2012,08,13,07,00,6.90
2012,08,13,07,01,6.90
2012,08,13,07,02,6.90
2012,08,13,07,03,6.90
2012,08,13,07,04,6.90
2012,08,13,07,05,6.90
2012,08,13,07,06,6.80
2012,08,13,07,07,6.80
2012,08,13,07,08,6.80
2012,08,13,07,09,6.80
2012,08,13,07,10,6.80
2012,08,13,07,11,6.80
2012,08,13,07,12,6.80
2012,08,13,07,13,6.80
2012,08,13,07,14,6.80
2012,08,13,07,15,6.80
2012,08,13,07,16,6.80
2012,08,13,07,17,6.80
2012,08,13,07,18,6.80
2012,08,13,07,19,6.80
2012,08,13,07,20,6.80
2012,08,13,07,21,6.80
2012,08,13,07,22,6.80
2012,08,13,07,23,6.80
2012,08,13,07,24,6.80
2012,08,13,07,25,6.80
2012,08,13,07,26,6.80
2012,08,13,07,27,6.80
2012,08,13,07,28,6.80
2012,08,13,07,29,6.80
2012,08,13,07,30,6.80
2012,08,13,07,31,6.80
2012,08,13,07,32,6.80
2012,08,13,07,33,6.70
2012,08,13,07,34,6.70
2012,08,13,07,35,6.70
2012,08,13,07,36,6.70
2012,08,13,07,37,6.70
2012,08,13,07,38,6.70
2012,08,13,07,39,6.70
2012,08,13,07,40,6.70
2012,08,13,07,41,6.70
2012,08,13,07,42,6.70
2012,08,13,07,43,6.70
2012,08,13,07,44,6.70
2012,08,13,07,45,6.70
2012,08,13,07,46,6.70
2012,08,13,07,47,6.70
2012,08,13,07,48,6.70
2012,08,13,07,49,6.70
2012,08,13,07,50,6.70
2012,08,13,07,51,6.80
2012,08,13,07,52,6.70
2012,08,13,07,53,6.80
2012,08,13,07,54,6.80
2012,08,13,07,55,6.80
2012,08,13,07,56,6.80
2012,08,13,07,57,6.80
2012,08,13,07,58,6.80
2012,08,13,07,59,6.80
2012,08,13,08,00,6.80
2012,08,13,08,01,6.80
2012,08,13,08,02,6.80
2012,08,13,08,03,6.70
2012,08,13,08,04,6.80
2012,08,13,08,05,6.80
2012,08,13,08,06,6.80
2012,08,13,08,07,6.80
2012,08,13,08,08,6.80
2012,08,13,08,09,6.80
2012,08,13,08,10,6.80
2012,08,13,08,11,6.80
2012,08,13,08,12,6.80
2012,08,13,08,13,6.80
2012,08,13,08,14,6.80
2012,08,13,08,15,6.90
2012,08,13,08,16,6.90
2012,08,13,08,17,6.90
2012,08,13,08,18,6.90
2012,08,13,08,19,6.90
2012,08,13,08,20,6.90
2012,08,13,08,21,7.00
2012,08,13,08,22,7.00
2012,08,13,08,23,7.00
2012,08,13,08,24,7.00
2012,08,13,08,25,7.00
2012,08,13,08,26,7.00
2012,08,13,08,27,7.10
2012,08,13,08,28,7.10
2012,08,13,08,29,7.10
2012,08,13,08,30,7.10
2012,08,13,08,31,7.10
2012,08,13,08,32,7.10
2012,08,13,08,33,7.20
2012,08,13,08,34,7.20
2012,08,13,08,35,7.20
2012,08,13,08,36,7.20
2012,08,13,08,37,7.20
2012,08,13,08,38,7.20
2012,08,13,08,39,7.20
2012,08,13,08,40,7.20
2012,08,13,08,41,7.20
2012,08,13,08,42,7.20
2012,08,13,08,43,7.20
2012,08,13,08,44,7.30
2012,08,13,08,45,7.30
2012,08,13,08,46,7.30
2012,08,13,08,47,7.30
2012,08,13,08,48,7.30
2012,08,13,08,49,7.30
2012,08,13,08,50,7.30
2012,08,13,08,51,7.40
2012,08,13,08,52,7.40
2012,08,13,08,53,7.40
2012,08,13,08,54,7.40
2012,08,13,08,55,7.40
2012,08,13,08,56,7.40
2012,08,13,08,57,7.40
2012,08,13,08,58,7.40
2012,08,13,08,59,7.50
2012,08,13,09,00,7.50
2012,08,13,09,01,7.50
2012,08,13,09,02,7.60
2012,08,13,09,03,7.60
2012,08,13,09,04,7.70
2012,08,13,09,05,7.70
2012,08,13,09,06,7.80
2012,08,13,09,07,7.80
2012,08,13,09,08,7.90
2012,08,13,09,09,8.00
2012,08,13,09,10,8.10
2012,08,13,09,11,8.20
2012,08,13,09,12,8.20
2012,08,13,09,13,8.30
2012,08,13,09,14,8.40
2012,08,13,09,15,8.50
2012,08,13,09,16,8.60
2012,08,13,09,17,8.70
2012,08,13,09,18,8.70
2012,08,13,09,19,8.80
2012,08,13,09,20,8.90
2012,08,13,09,21,9.00
2012,08,13,09,22,9.10
2012,08,13,09,23,9.20
2012,08,13,09,24,9.30
2012,08,13,09,25,9.40
2012,08,13,09,26,9.40
2012,08,13,09,27,9.50
2012,08,13,09,28,9.60
2012,08,13,09,29,9.60
2012,08,13,09,30,9.70
2012,08,13,09,31,9.80
2012,08,13,09,32,9.80
2012,08,13,09,33,9.90
2012,08,13,09,34,10.00
2012,08,13,09,35,10.00
2012,08,13,09,36,10.10
2012,08,13,09,37,10.20
2012,08,13,09,38,10.30
2012,08,13,09,39,10.40
2012,08,13,09,40,10.50
2012,08,13,09,41,10.50
2012,08,13,09,42,10.60
2012,08,13,09,43,10.70
2012,08,13,09,44,10.80
2012,08,13,09,45,10.90
2012,08,13,09,46,10.90
2012,08,13,09,47,11.00
2012,08,13,09,48,11.10
2012,08,13,09,49,11.20
2012,08,13,09,50,11.20
2012,08,13,09,51,11.30
2012,08,13,09,52,11.30
2012,08,13,09,53,11.40
2012,08,13,09,54,11.40
2012,08,13,09,55,11.50
2012,08,13,09,56,11.60
2012,08,13,09,57,11.60
2012,08,13,09,58,11.60
2012,08,13,09,59,11.70
2012,08,13,10,00,11.80
2012,08,13,10,01,11.80
2012,08,13,10,02,11.80
2012,08,13,10,03,11.90
2012,08,13,10,04,12.00
2012,08,13,10,05,12.00
2012,08,13,10,06,12.10
2012,08,13,10,07,12.10
2012,08,13,10,08,12.20
2012,08,13,10,09,12.30
2012,08,13,10,10,12.30
2012,08,13,10,11,12.40
2012,08,13,10,12,12.40
2012,08,13,10,13,12.50
2012,08,13,10,14,12.50
2012,08,13,10,15,12.60
2012,08,13,10,16,12.70
2012,08,13,10,17,12.70
2012,08,13,10,18,12.70
2012,08,13,10,19,12.80
2012,08,13,10,20,12.80
2012,08,13,10,21,12.90
2012,08,13,10,22,12.90
2012,08,13,10,23,12.90
2012,08,13,10,24,13.00
2012,08,13,10,25,13.00
2012,08,13,10,26,13.10
2012,08,13,10,27,13.10
2012,08,13,10,28,13.20
2012,08,13,10,29,13.20
2012,08,13,10,30,13.20
2012,08,13,10,31,13.30
2012,08,13,10,32,13.30
2012,08,13,10,33,13.30
2012,08,13,10,34,13.30
2012,08,13,10,35,13.30
2012,08,13,10,36,13.40
2012,08,13,10,37,13.40
2012,08,13,10,38,13.40
2012,08,13,10,39,13.40
2012,08,13,10,40,13.40
2012,08,13,10,41,13.40
2012,08,13,10,42,13.30
2012,08,13,10,43,13.40
2012,08,13,10,44,13.40
2012,08,13,10,45,13.40
2012,08,13,10,46,13.50
2012,08,13,10,47,13.50
2012,08,13,10,48,13.60
2012,08,13,10,49,13.70
2012,08,13,10,50,13.80
2012,08,13,10,51,13.90
2012,08,13,10,52,14.00
2012,08,13,10,53,14.00
2012,08,13,10,54,14.10
2012,08,13,10,55,14.20
2012,08,13,10,56,14.20
2012,08,13,10,57,14.30
2012,08,13,10,58,14.30
2012,08,13,10,59,14.40
2012,08,13,11,00,14.40
2012,08,13,11,01,14.50
2012,08,13,11,02,14.50
2012,08,13,11,03,14.60
2012,08,13,11,04,14.60
2012,08,13,11,05,14.70
2012,08,13,11,06,14.70
2012,08,13,11,07,14.70
2012,08,13,11,08,14.80
2012,08,13,11,09,14.80
2012,08,13,11,10,14.80
2012,08,13,11,11,14.90
2012,08,13,11,12,15.00
2012,08,13,11,13,15.00
2012,08,13,11,14,15.10
2012,08,13,11,15,15.20
2012,08,13,11,16,15.30
2012,08,13,11,17,15.40
2012,08,13,11,18,15.40
2012,08,13,11,19,15.50
2012,08,13,11,20,15.60
2012,08,13,11,21,15.60
2012,08,13,11,22,15.60
2012,08,13,11,23,15.70
2012,08,13,11,24,15.70
2012,08,13,11,25,15.80
2012,08,13,11,26,15.80
2012,08,13,11,27,15.90
2012,08,13,11,28,15.90
2012,08,13,11,29,16.00
2012,08,13,11,30,16.00
2012,08,13,11,31,16.00
2012,08,13,11,32,16.10
2012,08,13,11,33,16.10
2012,08,13,11,34,16.10
2012,08,13,11,35,16.10
2012,08,13,11,36,16.10
2012,08,13,11,37,16.20
2012,08,13,11,38,16.20
2012,08,13,11,39,16.20
2012,08,13,11,40,16.20
2012,08,13,11,41,16.30
2012,08,13,11,42,16.30
2012,08,13,11,43,16.30
2012,08,13,11,44,16.30
2012,08,13,11,45,16.30
2012,08,13,11,46,16.30
2012,08,13,11,47,16.30
2012,08,13,11,48,16.30
2012,08,13,11,49,16.30
2012,08,13,11,50,16.30
2012,08,13,11,51,16.30
2012,08,13,11,52,16.30
2012,08,13,11,53,16.40
2012,08,13,11,54,16.40
2012,08,13,11,55,16.40
2012,08,13,11,56,16.40
2012,08,13,11,57,16.50
2012,08,13,11,58,16.50
2012,08,13,11,59,16.60
2012,08,13,12,00,16.60
2012,08,13,12,01,16.70
2012,08,13,12,02,16.70
2012,08,13,12,03,16.70
2012,08,13,12,04,16.80
2012,08,13,12,05,16.90
2012,08,13,12,06,16.90
2012,08,13,12,07,17.00
2012,08,13,12,08,17.10
2012,08,13,12,09,17.10
2012,08,13,12,10,17.20
2012,08,13,12,11,17.30
2012,08,13,12,12,17.30
2012,08,13,12,13,17.40
2012,08,13,12,14,17.40
2012,08,13,12,15,17.40
2012,08,13,12,16,17.40
2012,08,13,12,17,17.50
2012,08,13,12,18,17.50
2012,08,13,12,19,17.60
2012,08,13,12,20,17.60
2012,08,13,12,21,17.60
2012,08,13,12,22,17.60
2012,08,13,12,23,17.70
2012,08,13,12,24,17.70
2012,08,13,12,25,17.70
2012,08,13,12,26,17.80
2012,08,13,12,27,17.80
2012,08,13,12,28,17.80
2012,08,13,12,29,17.80
2012,08,13,12,30,17.80
2012,08,13,12,31,17.80
2012,08,13,12,32,17.90
2012,08,13,12,33,17.90
2012,08,13,12,34,17.90
2012,08,13,12,35,18.00
2012,08,13,12,36,18.00
2012,08,13,12,37,18.00
2012,08,13,12,38,18.10
2012,08,13,12,39,18.10
2012,08,13,12,40,18.10
2012,08,13,12,41,18.10
2012,08,13,12,42,18.20
2012,08,13,12,43,18.20
2012,08,13,12,44,18.20
2012,08,13,12,45,18.30
2012,08,13,12,46,18.30
2012,08,13,12,47,18.30
2012,08,13,12,48,18.40
2012,08,13,12,49,18.40
2012,08,13,12,50,18.40
2012,08,13,12,51,18.40
2012,08,13,12,52,18.40
2012,08,13,12,53,18.40
2012,08,13,12,54,18.50
2012,08,13,12,55,18.60
2012,08,13,12,56,18.60
2012,08,13,12,57,18.60
2012,08,13,12,58,18.70
2012,08,13,12,59,18.70
2012,08,13,13,00,18.70
2012,08,13,13,01,18.80
2012,08,13,13,02,18.80
2012,08,13,13,03,18.80
2012,08,13,13,04,18.80
2012,08,13,13,05,18.90
2012,08,13,13,06,18.90
2012,08,13,13,07,19.00
2012,08,13,13,08,19.10
2012,08,13,13,09,19.10
2012,08,13,13,10,19.20
2012,08,13,13,11,19.20
2012,08,13,13,12,19.30
2012,08,13,13,13,19.30
2012,08,13,13,14,19.30
2012,08,13,13,15,19.30
2012,08,13,13,16,19.30
2012,08,13,13,17,19.30
2012,08,13,13,18,19.30
2012,08,13,13,19,19.40
2012,08,13,13,20,19.40
2012,08,13,13,21,19.40
2012,08,13,13,22,19.40
2012,08,13,13,23,19.40
2012,08,13,13,24,19.40
2012,08,13,13,25,19.40
2012,08,13,13,26,19.50
2012,08,13,13,27,19.50
2012,08,13,13,28,19.60
2012,08,13,13,29,19.60
2012,08,13,13,30,19.60
2012,08,13,13,31,19.70
2012,08,13,13,32,19.70
2012,08,13,13,33,19.70
2012,08,13,13,34,19.70
2012,08,13,13,35,19.70
2012,08,13,13,36,19.70
2012,08,13,13,37,19.70
2012,08,13,13,38,19.80
2012,08,13,13,39,19.80
2012,08,13,13,40,19.80
2012,08,13,13,41,19.80
2012,08,13,13,42,19.80
2012,08,13,13,43,19.80
2012,08,13,13,44,19.80
2012,08,13,13,45,19.80
2012,08,13,13,46,19.80
2012,08,13,13,47,19.80
2012,08,13,13,48,19.90
2012,08,13,13,49,19.90
2012,08,13,13,50,19.90
2012,08,13,13,51,19.80
2012,08,13,13,52,19.80
2012,08,13,13,53,19.80
2012,08,13,13,54,19.80
2012,08,13,13,55,19.80
2012,08,13,13,56,19.80
2012,08,13,13,57,19.90
2012,08,13,13,58,20.00
2012,08,13,13,59,20.00
2012,08,13,14,00,20.10
2012,08,13,14,01,20.10
2012,08,13,14,02,20.20
2012,08,13,14,03,20.20
2012,08,13,14,04,20.30
2012,08,13,14,05,20.30
2012,08,13,14,06,20.30
2012,08,13,14,07,20.40
2012,08,13,14,08,20.40
2012,08,13,14,09,20.40
2012,08,13,14,10,20.40
2012,08,13,14,11,20.40
2012,08,13,14,12,20.50
2012,08,13,14,13,20.50
2012,08,13,14,14,20.50
2012,08,13,14,15,20.60
2012,08,13,14,16,20.60
2012,08,13,14,17,20.60
2012,08,13,14,18,20.70
2012,08,13,14,19,20.70
2012,08,13,14,20,20.70
2012,08,13,14,21,20.70
2012,08,13,14,22,20.80
2012,08,13,14,23,20.80
2012,08,13,14,24,20.80
2012,08,13,14,25,20.80
2012,08,13,14,26,20.80
2012,08,13,14,27,20.80
2012,08,13,14,28,20.80
2012,08,13,14,29,20.80
2012,08,13,14,30,20.80
2012,08,13,14,31,20.80
2012,08,13,14,32,20.80
2012,08,13,14,33,20.80
2012,08,13,14,34,20.80
2012,08,13,14,35,20.80
2012,08,13,14,36,20.80
2012,08,13,14,37,20.80
2012,08,13,14,38,20.80
2012,08,13,14,39,20.80
2012,08,13,14,40,20.80
2012,08,13,14,41,20.90
2012,08,13,14,42,20.90
2012,08,13,14,43,20.90
2012,08,13,14,44,21.00
2012,08,13,14,45,21.00
2012,08,13,14,46,21.10
2012,08,13,14,47,21.10
2012,08,13,14,48,21.20
2012,08,13,14,49,21.20
2012,08,13,14,50,21.20
2012,08,13,14,51,21.20
2012,08,13,14,52,21.20
2012,08,13,14,53,21.20
2012,08,13,14,54,21.30
2012,08,13,14,55,21.30
2012,08,13,14,56,21.30
2012,08,13,14,57,21.30
2012,08,13,14,58,21.30
2012,08,13,14,59,21.40
2012,08,13,15,00,21.40
2012,08,13,15,01,21.40
2012,08,13,15,02,21.40
2012,08,13,15,03,21.40
2012,08,13,15,04,21.40
2012,08,13,15,05,21.50
2012,08,13,15,06,21.50
2012,08,13,15,07,21.50
2012,08,13,15,08,21.50
2012,08,13,15,09,21.60
2012,08,13,15,10,21.60
2012,08,13,15,11,21.60
2012,08,13,15,12,21.60
2012,08,13,15,13,21.60
2012,08,13,15,14,21.60
2012,08,13,15,15,21.60
2012,08,13,15,16,21.60
2012,08,13,15,17,21.60
2012,08,13,15,18,21.70
2012,08,13,15,19,21.70
2012,08,13,15,20,21.70
2012,08,13,15,21,21.80
2012,08,13,15,22,21.80
2012,08,13,15,23,21.80
2012,08,13,15,24,21.80
2012,08,13,15,25,21.70
2012,08,13,15,26,21.70
2012,08,13,15,27,21.70
2012,08,13,15,28,21.70
2012,08,13,15,29,21.70
2012,08,13,15,30,21.70
2012,08,13,15,31,21.70
2012,08,13,15,32,21.80
2012,08,13,15,33,21.80
2012,08,13,15,34,21.80
2012,08,13,15,35,21.90
2012,08,13,15,36,21.90
2012,08,13,15,37,21.90
2012,08,13,15,38,21.90
2012,08,13,15,39,21.90
2012,08,13,15,40,21.90
2012,08,13,15,41,22.00
2012,08,13,15,42,22.00
2012,08,13,15,43,22.00
2012,08,13,15,44,22.10
2012,08,13,15,45,22.10
2012,08,13,15,46,22.20
2012,08,13,15,47,22.10
2012,08,13,15,48,22.10
2012,08,13,15,49,22.10
2012,08,13,15,50,22.10
2012,08,13,15,51,22.10
2012,08,13,15,52,22.10
2012,08,13,15,53,22.20
2012,08,13,15,54,22.20
2012,08,13,15,55,22.20
2012,08,13,15,56,22.20
2012,08,13,15,57,22.20
2012,08,13,15,58,22.20
2012,08,13,15,59,22.20
2012,08,13,16,00,22.20
2012,08,13,16,01,22.20
2012,08,13,16,02,22.30
2012,08,13,16,03,22.30
2012,08,13,16,04,22.30
2012,08,13,16,05,22.30
2012,08,13,16,06,22.30
2012,08,13,16,07,22.30
2012,08,13,16,08,22.30
2012,08,13,16,09,22.30
2012,08,13,16,10,22.30
2012,08,13,16,11,22.30
2012,08,13,16,12,22.30
2012,08,13,16,13,22.30
2012,08,13,16,14,22.30
2012,08,13,16,15,22.30
2012,08,13,16,16,22.30
2012,08,13,16,17,22.30
2012,08,13,16,18,22.40
2012,08,13,16,19,22.30
2012,08,13,16,20,22.40
2012,08,13,16,21,22.40
2012,08,13,16,22,22.40
2012,08,13,16,23,22.40
2012,08,13,16,24,22.40
2012,08,13,16,25,22.40
2012,08,13,16,26,22.40
2012,08,13,16,27,22.40
2012,08,13,16,28,22.40
2012,08,13,16,29,22.50
2012,08,13,16,30,22.50
2012,08,13,16,31,22.50
2012,08,13,16,32,22.60
2012,08,13,16,33,22.60
2012,08,13,16,34,22.60
2012,08,13,16,35,22.60
2012,08,13,16,36,22.60
2012,08,13,16,37,22.60
2012,08,13,16,38,22.60
2012,08,13,16,39,22.60
2012,08,13,16,40,22.60
2012,08,13,16,41,22.60
2012,08,13,16,42,22.60
2012,08,13,16,43,22.60
2012,08,13,16,44,22.60
2012,08,13,16,45,22.60
2012,08,13,16,46,22.60
2012,08,13,16,47,22.60
2012,08,13,16,48,22.60
2012,08,13,16,49,22.60
2012,08,13,16,50,22.60
2012,08,13,16,51,22.60
2012,08,13,16,52,22.60
2012,08,13,16,53,22.70
2012,08,13,16,54,22.70
2012,08,13,16,55,22.70
2012,08,13,16,56,22.70
2012,08,13,16,57,22.80
2012,08,13,16,58,22.80
2012,08,13,16,59,22.80
2012,08,13,17,00,22.70
2012,08,13,17,01,22.70
2012,08,13,17,02,22.70
2012,08,13,17,03,22.70
2012,08,13,17,04,22.70
2012,08,13,17,05,22.70
2012,08,13,17,06,22.70
2012,08,13,17,07,22.70
2012,08,13,17,08,22.70
2012,08,13,17,09,22.70
2012,08,13,17,10,22.60
2012,08,13,17,11,22.70
2012,08,13,17,12,22.70
2012,08,13,17,13,22.70
2012,08,13,17,14,22.70
2012,08,13,17,15,22.70
2012,08,13,17,16,22.70
2012,08,13,17,17,22.70
2012,08,13,17,18,22.80
2012,08,13,17,19,22.80
2012,08,13,17,20,22.80
2012,08,13,17,21,22.80
2012,08,13,17,22,22.80
2012,08,13,17,23,22.80
2012,08,13,17,24,22.80
2012,08,13,17,25,22.80
2012,08,13,17,26,22.80
2012,08,13,17,27,22.80
2012,08,13,17,28,22.80
2012,08,13,17,29,22.80
2012,08,13,17,30,22.80
2012,08,13,17,31,22.70
2012,08,13,17,32,22.70
2012,08,13,17,33,22.70
2012,08,13,17,34,22.80
2012,08,13,17,35,22.80
2012,08,13,17,36,22.80